Terminal Aerodrome Forecast
Issued by NWS

Home | Current Version | Previous Version | Text Only | Print | Product List | Glossary On
Versions: 1 2 3 4 5 6 7 8 9 10 11 12 13 14 15 16 17 18 19 20 21 22 23 24 25 26 27 28
000
FTAK31 PANC 230539
TAFAGK
TAF
PAGK 230539Z 2306/2406 17012G18KT P6SM SCT150
     FM230800 17008KT P6SM BKN150
     FM231500 16007KT P6SM -SHRA BKN060
     FM232100 16010G18KT P6SM VCSH SCT060 BKN100=

USA.gov is the U.S. government's official web portal to all federal, state and local government web resources and services.